Time,TemperatureF,DewpointF,PressureIn,WindDirection,WindDirectionDegrees,WindSpeedMPH,WindSpeedGustMPH,Humidity,HourlyPrecipIn,Conditions,Clouds,dailyrainin,SoftwareType,DateUTC
2013-06-29 00:02:00,55.5,39.1,29.85,SSW,207,0.0,0.0,54,0.00,,,0.00,Wunderground v.1.15,2013-06-29 06:02:00,
2013-06-29 00:08:00,54.9,38.6,29.85,SSW,207,0.0,1.0,54,0.00,,,0.00,Wunderground v.1.15,2013-06-29 06:08:00,
2013-06-29 00:13:00,54.5,38.7,29.85,SSW,207,1.0,1.0,55,0.00,,,0.00,Wunderground v.1.15,2013-06-29 06:13:00,
2013-06-29 00:18:00,54.2,38.8,29.86,SSW,207,0.0,1.0,56,0.00,,,0.00,Wunderground v.1.15,2013-06-29 06:18:00,
2013-06-29 00:24:00,54.1,38.7,29.86,SSW,207,0.0,0.0,56,0.00,,,0.00,Wunderground v.1.15,2013-06-29 06:24:00,
2013-06-29 00:30:00,54.1,38.7,29.86,SSW,207,0.0,0.0,56,0.00,,,0.00,Wunderground v.1.15,2013-06-29 06:30:00,
2013-06-29 00:35:00,54.0,38.6,29.86,SSW,207,0.0,0.0,56,0.00,,,0.00,Wunderground v.1.15,2013-06-29 06:35:00,
2013-06-29 00:40:00,53.9,38.6,29.85,SSW,210,0.0,0.0,56,0.00,,,0.00,Wunderground v.1.15,2013-06-29 06:40:00,
2013-06-29 00:45:00,53.8,38.5,29.85,SSW,211,0.0,1.0,56,0.00,,,0.00,Wunderground v.1.15,2013-06-29 06:45:00,
2013-06-29 00:50:00,53.6,38.7,29.85,SSW,211,0.0,0.0,57,0.00,,,0.00,Wunderground v.1.15,2013-06-29 06:50:00,
2013-06-29 00:56:00,53.5,38.6,29.86,SSW,211,0.0,0.0,57,0.00,,,0.00,Wunderground v.1.15,2013-06-29 06:56:00,
2013-06-29 01:01:00,53.5,38.6,29.85,SSW,211,2.0,2.0,57,0.00,,,0.00,Wunderground v.1.15,2013-06-29 07:01:00,
2013-06-29 01:06:00,53.6,38.7,29.85,SSW,211,1.0,2.0,57,0.00,,,0.00,Wunderground v.1.15,2013-06-29 07:06:00,
2013-06-29 01:11:00,53.4,39.0,29.85,SSW,211,0.0,0.0,58,0.00,,,0.00,Wunderground v.1.15,2013-06-29 07:11:00,
2013-06-29 01:16:00,53.3,39.3,29.85,SSW,211,0.0,3.0,59,0.00,,,0.00,Wunderground v.1.15,2013-06-29 07:16:00,
2013-06-29 01:22:00,53.3,39.8,29.85,SSW,211,0.0,1.0,60,0.00,,,0.00,Wunderground v.1.15,2013-06-29 07:22:00,
2013-06-29 01:27:00,53.1,40.0,29.85,SSW,211,2.0,2.0,61,0.00,,,0.00,Wunderground v.1.15,2013-06-29 07:27:00,
2013-06-29 01:32:00,52.9,40.6,29.85,SSW,211,0.0,1.0,63,0.00,,,0.00,Wunderground v.1.15,2013-06-29 07:32:00,
2013-06-29 01:37:00,52.8,41.0,29.85,SSW,211,1.0,3.0,64,0.00,,,0.00,Wunderground v.1.15,2013-06-29 07:37:00,
2013-06-29 01:42:00,52.8,41.0,29.84,SSW,211,0.0,2.0,64,0.00,,,0.00,Wunderground v.1.15,2013-06-29 07:42:00,
2013-06-29 01:47:00,52.8,40.5,29.84,SSW,211,2.0,2.0,63,0.00,,,0.00,Wunderground v.1.15,2013-06-29 07:47:00,
2013-06-29 01:52:00,52.7,40.5,29.84,SW,222,0.0,1.0,63,0.00,,,0.00,Wunderground v.1.15,2013-06-29 07:52:00,
2013-06-29 01:58:00,52.4,40.2,29.84,SW,221,0.0,2.0,63,0.00,,,0.00,Wunderground v.1.15,2013-06-29 07:58:00,
2013-06-29 02:03:00,52.1,39.9,29.84,SW,220,0.0,2.0,63,0.00,,,0.00,Wunderground v.1.15,2013-06-29 08:03:00,
2013-06-29 02:08:00,52.0,39.8,29.84,SSW,203,1.0,3.0,63,0.00,,,0.00,Wunderground v.1.15,2013-06-29 08:08:00,
2013-06-29 02:13:00,51.8,39.6,29.84,SSW,202,0.0,1.0,63,0.00,,,0.00,Wunderground v.1.15,2013-06-29 08:13:00,
2013-06-29 02:18:00,51.7,39.5,29.84,South,190,0.0,3.0,63,0.00,,,0.00,Wunderground v.1.15,2013-06-29 08:18:00,
2013-06-29 02:23:00,51.6,39.4,29.84,SSE,167,0.0,4.0,63,0.00,,,0.00,Wunderground v.1.15,2013-06-29 08:23:00,
2013-06-29 02:28:00,51.4,39.2,29.84,SSE,162,3.0,4.0,63,0.00,,,0.00,Wunderground v.1.15,2013-06-29 08:28:00,
2013-06-29 02:33:00,51.3,39.1,29.84,SE,144,2.0,5.0,63,0.00,,,0.00,Wunderground v.1.15,2013-06-29 08:33:00,
2013-06-29 02:38:00,51.3,39.5,29.84,South,179,0.0,5.0,64,0.00,,,0.00,Wunderground v.1.15,2013-06-29 08:38:00,
2013-06-29 02:43:00,51.3,39.5,29.84,SE,146,4.0,5.0,64,0.00,,,0.00,Wunderground v.1.15,2013-06-29 08:43:00,
2013-06-29 02:48:00,51.2,39.4,29.84,SE,146,4.0,5.0,64,0.00,,,0.00,Wunderground v.1.15,2013-06-29 08:48:00,
2013-06-29 02:53:00,51.0,39.2,29.84,SE,144,2.0,3.0,64,0.00,,,0.00,Wunderground v.1.15,2013-06-29 08:53:00,
2013-06-29 02:58:00,50.9,39.1,29.84,SSE,148,5.0,8.0,64,0.00,,,0.00,Wunderground v.1.15,2013-06-29 08:58:00,
2013-06-29 03:03:00,50.9,39.1,29.84,SSE,153,4.0,7.0,64,0.00,,,0.00,Wunderground v.1.15,2013-06-29 09:03:00,
2013-06-29 03:08:00,50.9,39.1,29.84,South,173,3.0,7.0,64,0.00,,,0.00,Wunderground v.1.15,2013-06-29 09:08:00,
2013-06-29 03:13:00,50.9,39.1,29.84,SSE,153,4.0,6.0,64,0.00,,,0.00,Wunderground v.1.15,2013-06-29 09:13:00,
2013-06-29 03:18:00,50.9,39.1,29.84,SSE,150,4.0,6.0,64,0.00,,,0.00,Wunderground v.1.15,2013-06-29 09:18:00,
2013-06-29 03:23:00,51.0,39.2,29.84,SE,144,2.0,8.0,64,0.00,,,0.00,Wunderground v.1.15,2013-06-29 09:23:00,
2013-06-29 03:28:00,51.0,39.2,29.84,SE,137,4.0,9.0,64,0.00,,,0.00,Wunderground v.1.15,2013-06-29 09:28:00,
2013-06-29 03:33:00,51.0,39.2,29.83,SSE,160,8.0,9.0,64,0.00,,,0.00,Wunderground v.1.15,2013-06-29 09:33:00,
2013-06-29 03:38:00,50.9,39.1,29.83,SE,145,4.0,11.0,64,0.00,,,0.00,Wunderground v.1.15,2013-06-29 09:38:00,
2013-06-29 03:43:00,50.9,39.1,29.83,SSE,148,2.0,11.0,64,0.00,,,0.00,Wunderground v.1.15,2013-06-29 09:43:00,
2013-06-29 03:48:00,50.9,39.1,29.83,SE,144,6.0,11.0,64,0.00,,,0.00,Wunderground v.1.15,2013-06-29 09:48:00,
2013-06-29 03:53:00,50.8,39.1,29.83,South,183,6.0,9.0,64,0.00,,,0.00,Wunderground v.1.15,2013-06-29 09:53:00,
2013-06-29 03:58:00,50.9,39.1,29.83,SSE,161,5.0,10.0,64,0.00,,,0.00,Wunderground v.1.15,2013-06-29 09:58:00,
2013-06-29 04:03:00,51.0,39.2,29.83,SE,137,5.0,10.0,64,0.00,,,0.00,Wunderground v.1.15,2013-06-29 10:03:00,
2013-06-29 04:08:00,51.0,38.8,29.83,SE,136,6.0,10.0,63,0.00,,,0.00,Wunderground v.1.15,2013-06-29 10:08:00,
2013-06-29 04:13:00,51.0,38.8,29.83,SE,134,0.0,7.0,63,0.00,,,0.00,Wunderground v.1.15,2013-06-29 10:13:00,
2013-06-29 04:18:00,51.0,38.8,29.83,SE,134,2.0,10.0,63,0.00,,,0.00,Wunderground v.1.15,2013-06-29 10:18:00,
2013-06-29 04:23:00,50.9,38.7,29.83,SE,126,5.0,11.0,63,0.00,,,0.00,Wunderground v.1.15,2013-06-29 10:23:00,
2013-06-29 04:28:00,50.8,38.7,29.83,South,179,3.0,11.0,63,0.00,,,0.00,Wunderground v.1.15,2013-06-29 10:28:00,
2013-06-29 04:33:00,50.8,38.7,29.83,SSE,154,6.0,11.0,63,0.00,,,0.00,Wunderground v.1.15,2013-06-29 10:33:00,
2013-06-29 04:38:00,50.8,38.7,29.83,SE,143,3.0,11.0,63,0.00,,,0.00,Wunderground v.1.15,2013-06-29 10:38:00,
2013-06-29 04:43:00,50.7,39.0,29.83,SE,129,3.0,7.0,64,0.00,,,0.00,Wunderground v.1.15,2013-06-29 10:43:00,
2013-06-29 04:48:00,50.7,38.6,29.83,SE,130,2.0,8.0,63,0.00,,,0.00,Wunderground v.1.15,2013-06-29 10:48:00,
2013-06-29 04:53:00,50.8,39.1,29.83,SE,144,3.0,7.0,64,0.00,,,0.00,Wunderground v.1.15,2013-06-29 10:53:00,
2013-06-29 04:58:00,50.9,38.7,29.83,SE,128,2.0,7.0,63,0.00,,,0.00,Wunderground v.1.15,2013-06-29 10:58:00,
2013-06-29 05:03:00,51.0,38.8,29.82,SE,132,4.0,8.0,63,0.00,,,0.00,Wunderground v.1.15,2013-06-29 11:03:00,
2013-06-29 05:08:00,51.0,38.8,29.82,SE,143,6.0,11.0,63,0.00,,,0.00,Wunderground v.1.15,2013-06-29 11:08:00,
2013-06-29 05:13:00,51.1,38.9,29.82,SE,143,1.0,5.0,63,0.00,,,0.00,Wunderground v.1.15,2013-06-29 11:13:00,
2013-06-29 05:18:00,51.1,38.9,29.82,ESE,121,3.0,8.0,63,0.00,,,0.00,Wunderground v.1.15,2013-06-29 11:18:00,
2013-06-29 05:23:00,51.2,39.0,29.82,ESE,119,3.0,8.0,63,0.00,,,0.00,Wunderground v.1.15,2013-06-29 11:23:00,
2013-06-29 05:28:00,51.4,39.2,29.82,ESE,108,1.0,8.0,63,0.00,,,0.00,Wunderground v.1.15,2013-06-29 11:28:00,
2013-06-29 05:33:00,51.5,39.3,29.82,ESE,120,1.0,5.0,63,0.00,,,0.00,Wunderground v.1.15,2013-06-29 11:33:00,
2013-06-29 05:38:00,51.6,39.8,29.82,East,91,2.0,5.0,64,0.00,,,0.00,Wunderground v.1.15,2013-06-29 11:38:00,
2013-06-29 05:43:00,51.5,39.7,29.82,SE,135,1.0,4.0,64,0.00,,,0.00,Wunderground v.1.15,2013-06-29 11:43:00,
2013-06-29 05:48:00,51.4,40.0,29.82,SE,132,0.0,4.0,65,0.00,,,0.00,Wunderground v.1.15,2013-06-29 11:48:00,
2013-06-29 05:53:00,51.1,40.1,29.82,ESE,119,0.0,2.0,66,0.00,,,0.00,Wunderground v.1.15,2013-06-29 11:53:00,
2013-06-29 05:58:00,50.8,40.2,29.82,ESE,115,1.0,2.0,67,0.00,,,0.00,Wunderground v.1.15,2013-06-29 11:58:00,
2013-06-29 06:03:00,50.7,40.1,29.82,ESE,115,0.0,1.0,67,0.00,,,0.00,Wunderground v.1.15,2013-06-29 12:03:00,
2013-06-29 06:08:00,50.6,40.4,29.82,SSE,150,2.0,3.0,68,0.00,,,0.00,Wunderground v.1.15,2013-06-29 12:08:00,
2013-06-29 06:13:00,50.4,39.9,29.82,SE,146,3.0,6.0,67,0.00,,,0.00,Wunderground v.1.15,2013-06-29 12:13:00,
2013-06-29 06:18:00,50.5,40.7,29.82,ENE,65,0.0,6.0,69,0.00,,,0.00,Wunderground v.1.15,2013-06-29 12:18:00,
2013-06-29 06:23:00,50.6,40.8,29.82,ENE,65,0.0,1.0,69,0.00,,,0.00,Wunderground v.1.15,2013-06-29 12:23:00,
2013-06-29 06:28:00,50.6,41.2,29.82,ENE,65,0.0,2.0,70,0.00,,,0.00,Wunderground v.1.15,2013-06-29 12:28:00,
2013-06-29 06:33:00,50.5,41.1,29.82,ENE,65,0.0,1.0,70,0.00,,,0.00,Wunderground v.1.15,2013-06-29 12:33:00,
2013-06-29 06:38:00,50.5,41.1,29.82,ENE,77,1.0,3.0,70,0.00,,,0.00,Wunderground v.1.15,2013-06-29 12:38:00,
2013-06-29 06:43:00,50.6,41.2,29.82,SSE,159,0.0,3.0,70,0.00,,,0.00,Wunderground v.1.15,2013-06-29 12:43:00,
2013-06-29 06:48:00,50.9,41.8,29.82,ESE,107,0.0,3.0,71,0.00,,,0.00,Wunderground v.1.15,2013-06-29 12:48:00,
2013-06-29 06:53:00,51.2,42.1,29.82,East,82,3.0,3.0,71,0.00,,,0.00,Wunderground v.1.15,2013-06-29 12:53:00,
2013-06-29 06:58:00,51.7,42.6,29.82,NW,319,0.0,3.0,71,0.00,,,0.00,Wunderground v.1.15,2013-06-29 12:58:00,
2013-06-29 07:03:00,52.2,42.7,29.82,WSW,240,0.0,1.0,70,0.00,,,0.00,Wunderground v.1.15,2013-06-29 13:03:00,
2013-06-29 07:08:00,52.7,43.2,29.82,West,273,0.0,2.0,70,0.00,,,0.00,Wunderground v.1.15,2013-06-29 13:08:00,
2013-06-29 07:13:00,53.2,42.5,29.82,NNW,327,2.0,3.0,67,0.00,,,0.00,Wunderground v.1.15,2013-06-29 13:13:00,
2013-06-29 07:18:00,53.6,42.5,29.82,NW,324,1.0,5.0,66,0.00,,,0.00,Wunderground v.1.15,2013-06-29 13:18:00,
2013-06-29 07:23:00,53.9,42.4,29.82,NNW,336,0.0,3.0,65,0.00,,,0.00,Wunderground v.1.15,2013-06-29 13:23:00,
2013-06-29 07:28:00,54.2,42.7,29.82,NNW,345,0.0,4.0,65,0.00,,,0.00,Wunderground v.1.15,2013-06-29 13:28:00,
2013-06-29 07:33:00,54.6,43.1,29.82,NW,319,1.0,3.0,65,0.00,,,0.00,Wunderground v.1.15,2013-06-29 13:33:00,
2013-06-29 07:38:00,55.1,42.7,29.82,North,360,2.0,3.0,63,0.00,,,0.00,Wunderground v.1.15,2013-06-29 13:38:00,
2013-06-29 07:43:00,55.7,43.3,29.82,NNW,327,0.0,2.0,63,0.00,,,0.00,Wunderground v.1.15,2013-06-29 13:43:00,
2013-06-29 07:48:00,56.2,42.9,29.82,NW,307,0.0,2.0,61,0.00,,,0.00,Wunderground v.1.15,2013-06-29 13:48:00,
2013-06-29 07:53:00,56.6,42.9,29.82,NW,323,0.0,3.0,60,0.00,,,0.00,Wunderground v.1.15,2013-06-29 13:53:00,
2013-06-29 07:58:00,57.2,43.0,29.82,NW,323,0.0,3.0,59,0.00,,,0.00,Wunderground v.1.15,2013-06-29 13:58:00,
2013-06-29 08:03:00,58.2,43.5,29.81,NW,323,0.0,1.0,58,0.00,,,0.00,Wunderground v.1.15,2013-06-29 14:03:00,
2013-06-29 08:08:00,59.3,43.6,29.81,NW,323,0.0,1.0,56,0.00,,,0.00,Wunderground v.1.15,2013-06-29 14:08:00,
2013-06-29 08:13:00,60.3,44.1,29.81,NW,323,1.0,1.0,55,0.00,,,0.00,Wunderground v.1.15,2013-06-29 14:13:00,
2013-06-29 08:18:00,61.4,44.1,29.81,NW,326,0.0,3.0,53,0.00,,,0.00,Wunderground v.1.15,2013-06-29 14:18:00,
2013-06-29 08:23:00,62.6,44.7,29.81,NNW,330,2.0,3.0,52,0.00,,,0.00,Wunderground v.1.15,2013-06-29 14:23:00,
2013-06-29 08:28:00,63.7,45.2,29.81,NNW,330,0.0,3.0,51,0.00,,,0.00,Wunderground v.1.15,2013-06-29 14:28:00,
2013-06-29 08:33:00,64.6,45.5,29.81,NW,317,1.0,4.0,50,0.00,,,0.00,Wunderground v.1.15,2013-06-29 14:33:00,
2013-06-29 08:38:00,65.2,45.5,29.80,NW,318,0.0,5.0,49,0.00,,,0.00,Wunderground v.1.15,2013-06-29 14:38:00,
2013-06-29 08:43:00,65.7,44.9,29.80,NNW,336,1.0,3.0,47,0.00,,,0.00,Wunderground v.1.15,2013-06-29 14:43:00,
2013-06-29 08:48:00,65.8,45.0,29.80,NNW,336,1.0,3.0,47,0.00,,,0.00,Wunderground v.1.15,2013-06-29 14:48:00,
2013-06-29 08:53:00,65.9,44.5,29.80,NNW,339,0.0,3.0,46,0.00,,,0.00,Wunderground v.1.15,2013-06-29 14:53:00,
2013-06-29 08:58:00,66.5,45.6,29.80,NW,312,0.0,4.0,47,0.00,,,0.00,Wunderground v.1.15,2013-06-29 14:58:00,
2013-06-29 09:03:00,67.1,45.6,29.80,NNW,327,0.0,4.0,46,0.00,,,0.00,Wunderground v.1.15,2013-06-29 15:03:00,
2013-06-29 09:09:00,67.6,44.9,29.80,North,5,0.0,4.0,44,0.00,,,0.00,Wunderground v.1.15,2013-06-29 15:09:00,
2013-06-29 09:14:00,68.0,43.4,29.79,North,5,0.0,1.0,41,0.00,,,0.00,Wunderground v.1.15,2013-06-29 15:14:00,
2013-06-29 09:19:00,68.1,43.5,29.79,NNW,327,1.0,3.0,41,0.00,,,0.00,Wunderground v.1.15,2013-06-29 15:19:00,
2013-06-29 09:24:00,68.3,44.3,29.79,NNW,327,0.0,2.0,42,0.00,,,0.00,Wunderground v.1.15,2013-06-29 15:24:00,
2013-06-29 09:29:00,68.2,44.2,29.79,West,267,0.0,3.0,42,0.00,,,0.00,Wunderground v.1.15,2013-06-29 15:29:00,
2013-06-29 09:34:00,68.0,44.7,29.79,West,267,0.0,1.0,43,0.00,,,0.00,Wunderground v.1.15,2013-06-29 15:34:00,
2013-06-29 09:39:00,68.3,44.3,29.78,NNW,342,1.0,5.0,42,0.00,,,0.00,Wunderground v.1.15,2013-06-29 15:39:00,
2013-06-29 09:44:00,69.2,43.8,29.78,NW,322,0.0,5.0,40,0.00,,,0.00,Wunderground v.1.15,2013-06-29 15:44:00,
2013-06-29 09:49:00,69.9,44.5,29.78,NW,325,1.0,5.0,40,0.00,,,0.00,Wunderground v.1.15,2013-06-29 15:49:00,
2013-06-29 09:54:00,70.6,45.1,29.78,NNE,13,0.0,3.0,40,0.00,,,0.00,Wunderground v.1.15,2013-06-29 15:54:00,
2013-06-29 09:59:00,71.4,43.8,29.77,North,360,0.0,5.0,37,0.00,,,0.00,Wunderground v.1.15,2013-06-29 15:59:00,
2013-06-29 10:04:00,72.2,43.0,29.77,North,350,1.0,4.0,35,0.00,,,0.00,Wunderground v.1.15,2013-06-29 16:04:00,
2013-06-29 10:09:00,72.9,44.4,29.77,NW,321,0.0,4.0,36,0.00,,,0.00,Wunderground v.1.15,2013-06-29 16:09:00,
2013-06-29 10:14:00,73.0,43.7,29.78,NW,319,0.0,3.0,35,0.00,,,0.00,Wunderground v.1.15,2013-06-29 16:14:00,
2013-06-29 10:19:00,72.8,45.0,29.78,West,270,1.0,3.0,37,0.00,,,0.00,Wunderground v.1.15,2013-06-29 16:19:00,
2013-06-29 10:24:00,71.8,42.7,29.77,WSW,240,4.0,8.0,35,0.00,,,0.00,Wunderground v.1.15,2013-06-29 16:24:00,
2013-06-29 10:29:00,70.3,39.0,29.77,WSW,248,0.0,8.0,32,0.00,,,0.00,Wunderground v.1.15,2013-06-29 16:29:00,
2013-06-29 10:34:00,70.4,39.1,29.77,WSW,242,0.0,2.0,32,0.00,,,0.00,Wunderground v.1.15,2013-06-29 16:34:00,
2013-06-29 10:39:00,71.4,40.8,29.77,WSW,239,3.0,4.0,33,0.00,,,0.00,Wunderground v.1.15,2013-06-29 16:39:00,
2013-06-29 10:44:00,72.6,39.4,29.77,SW,235,4.0,6.0,30,0.00,,,0.00,Wunderground v.1.15,2013-06-29 16:44:00,
2013-06-29 10:49:00,73.7,37.6,29.77,SSW,192,3.0,9.0,27,0.00,,,0.00,Wunderground v.1.15,2013-06-29 16:49:00,
2013-06-29 10:54:00,73.5,37.5,29.78,SW,215,2.0,9.0,27,0.00,,,0.00,Wunderground v.1.15,2013-06-29 16:54:00,
2013-06-29 10:59:00,72.3,33.5,29.77,NNW,332,3.0,13.0,24,0.00,,,0.00,Wunderground v.1.15,2013-06-29 16:59:00,
2013-06-29 11:04:00,71.5,34.8,29.77,NW,304,0.0,5.0,26,0.00,,,0.00,Wunderground v.1.15,2013-06-29 17:04:00,
2013-06-29 11:09:00,71.0,37.1,29.77,WSW,252,3.0,5.0,29,0.00,,,0.00,Wunderground v.1.15,2013-06-29 17:09:00,
2013-06-29 11:14:00,71.4,36.6,29.77,WSW,239,1.0,9.0,28,0.00,,,0.00,Wunderground v.1.15,2013-06-29 17:14:00,
2013-06-29 11:19:00,72.5,37.5,29.77,WSW,256,1.0,9.0,28,0.00,,,0.00,Wunderground v.1.15,2013-06-29 17:19:00,
2013-06-29 11:24:00,73.7,37.6,29.77,WSW,252,4.0,4.0,27,0.00,,,0.00,Wunderground v.1.15,2013-06-29 17:24:00,
2013-06-29 11:29:00,75.1,43.2,29.77,WSW,248,1.0,7.0,32,0.00,,,0.00,Wunderground v.1.15,2013-06-29 17:29:00,
2013-06-29 11:34:00,75.8,37.5,29.77,WSW,254,0.0,5.0,25,0.00,,,0.00,Wunderground v.1.15,2013-06-29 17:34:00,
2013-06-29 11:39:00,76.6,41.0,29.77,NNW,338,4.0,7.0,28,0.00,,,0.00,Wunderground v.1.15,2013-06-29 17:39:00,
2013-06-29 11:44:00,76.2,39.8,29.77,WSW,252,1.0,8.0,27,0.00,,,0.00,Wunderground v.1.15,2013-06-29 17:44:00,
2013-06-29 11:49:00,74.8,41.3,29.76,WNW,287,1.0,8.0,30,0.00,,,0.00,Wunderground v.1.15,2013-06-29 17:49:00,
2013-06-29 11:54:00,74.2,41.6,29.76,WNW,303,3.0,3.0,31,0.00,,,0.00,Wunderground v.1.15,2013-06-29 17:54:00,
2013-06-29 11:59:00,74.4,41.8,29.75,SW,232,0.0,5.0,31,0.00,,,0.00,Wunderground v.1.15,2013-06-29 17:59:00,
2013-06-29 12:04:00,74.5,41.0,29.76,WNW,284,1.0,10.0,30,0.00,,,0.00,Wunderground v.1.15,2013-06-29 18:04:00,
2013-06-29 12:09:00,73.8,40.4,29.76,WNW,290,1.0,10.0,30,0.00,,,0.00,Wunderground v.1.15,2013-06-29 18:09:00,
2013-06-29 12:14:00,73.0,40.6,29.75,NW,319,3.0,9.0,31,0.00,,,0.00,Wunderground v.1.15,2013-06-29 18:14:00,
2013-06-29 12:19:00,72.5,41.0,29.75,WNW,292,1.0,9.0,32,0.00,,,0.00,Wunderground v.1.15,2013-06-29 18:19:00,
2013-06-29 12:24:00,72.7,41.1,29.76,NW,321,7.0,10.0,32,0.00,,,0.00,Wunderground v.1.15,2013-06-29 18:24:00,
2013-06-29 12:29:00,73.1,40.7,29.76,WNW,302,0.0,10.0,31,0.00,,,0.00,Wunderground v.1.15,2013-06-29 18:29:00,
2013-06-29 12:34:00,72.8,39.5,29.76,West,263,1.0,7.0,30,0.00,,,0.00,Wunderground v.1.15,2013-06-29 18:34:00,
2013-06-29 12:39:00,72.4,40.0,29.76,SW,234,3.0,7.0,31,0.00,,,0.00,Wunderground v.1.15,2013-06-29 18:39:00,
2013-06-29 12:44:00,72.1,42.2,29.76,WSW,245,3.0,3.0,34,0.00,,,0.00,Wunderground v.1.15,2013-06-29 18:44:00,
2013-06-29 12:49:00,71.6,43.9,29.77,SSE,161,1.0,8.0,37,0.00,,,0.00,Wunderground v.1.15,2013-06-29 18:49:00,
2013-06-29 12:54:00,71.0,46.7,29.76,SSE,167,5.0,7.0,42,0.00,,,0.00,Wunderground v.1.15,2013-06-29 18:54:00,
2013-06-29 12:59:00,70.0,45.2,29.76,SSE,157,1.0,7.0,41,0.00,,,0.00,Wunderground v.1.15,2013-06-29 18:59:00,
2013-06-29 13:04:00,69.6,46.7,29.75,South,177,1.0,5.0,44,0.00,,,0.00,Wunderground v.1.15,2013-06-29 19:04:00,
2013-06-29 13:09:00,69.5,43.4,29.75,SSE,147,2.0,6.0,39,0.00,,,0.00,Wunderground v.1.15,2013-06-29 19:09:00,
2013-06-29 13:14:00,69.5,42.8,29.75,SW,214,0.0,5.0,38,0.00,,,0.00,Wunderground v.1.15,2013-06-29 19:14:00,
2013-06-29 13:19:00,69.4,42.0,29.75,SSE,166,4.0,7.0,37,0.00,,,0.00,Wunderground v.1.15,2013-06-29 19:19:00,
2013-06-29 13:24:00,69.3,41.9,29.76,SW,219,3.0,10.0,37,0.00,,,0.00,Wunderground v.1.15,2013-06-29 19:24:00,
2013-06-29 13:29:00,68.9,40.1,29.77,SE,138,4.0,15.0,35,0.00,,,0.00,Wunderground v.1.15,2013-06-29 19:29:00,
2013-06-29 13:34:00,68.1,40.1,29.77,SSE,153,6.0,18.0,36,0.00,,,0.00,Wunderground v.1.15,2013-06-29 19:34:00,
2013-06-29 13:39:00,67.2,40.0,29.76,ESE,108,5.0,18.0,37,0.00,,,0.00,Wunderground v.1.15,2013-06-29 19:39:00,
2013-06-29 13:44:00,67.5,41.7,29.76,South,173,6.0,15.0,39,0.00,,,0.00,Wunderground v.1.15,2013-06-29 19:44:00,
2013-06-29 13:49:00,69.1,41.7,29.75,SSE,155,9.0,15.0,37,0.00,,,0.00,Wunderground v.1.15,2013-06-29 19:49:00,
2013-06-29 13:54:00,69.8,42.3,29.75,SE,134,8.0,12.0,37,0.00,,,0.00,Wunderground v.1.15,2013-06-29 19:54:00,
2013-06-29 13:59:00,70.1,42.6,29.75,SE,125,0.0,15.0,37,0.00,,,0.00,Wunderground v.1.15,2013-06-29 19:59:00,
2013-06-29 14:04:00,70.4,42.2,29.75,SE,142,5.0,11.0,36,0.00,,,0.00,Wunderground v.1.15,2013-06-29 20:04:00,
2013-06-29 14:09:00,70.8,41.0,29.75,SSE,166,4.0,12.0,34,0.00,,,0.00,Wunderground v.1.15,2013-06-29 20:09:00,
2013-06-29 14:14:00,70.8,42.5,29.75,SE,128,0.0,6.0,36,0.00,,,0.00,Wunderground v.1.15,2013-06-29 20:14:00,
2013-06-29 14:19:00,70.5,42.2,29.75,SE,145,0.0,7.0,36,0.00,,,0.00,Wunderground v.1.15,2013-06-29 20:19:00,
2013-06-29 14:24:00,70.0,43.9,29.77,West,278,2.0,8.0,39,0.00,,,0.00,Wunderground v.1.15,2013-06-29 20:24:00,
2013-06-29 14:29:00,68.8,37.7,29.79,WSW,247,5.0,13.0,32,0.00,,,0.00,Wunderground v.1.15,2013-06-29 20:29:00,
2013-06-29 14:34:00,67.6,37.5,29.79,West,268,6.0,19.0,33,0.00,,,0.00,Wunderground v.1.15,2013-06-29 20:34:00,
2013-06-29 14:39:00,66.5,35.7,29.80,West,265,7.0,19.0,32,0.00,,,0.00,Wunderground v.1.15,2013-06-29 20:39:00,
2013-06-29 14:45:00,65.2,41.5,29.82,West,259,7.0,16.0,42,0.00,,,0.00,Wunderground v.1.15,2013-06-29 20:45:00,
2013-06-29 14:50:00,62.5,45.1,29.81,SSE,150,1.0,5.0,53,0.00,,,0.01,Wunderground v.1.15,2013-06-29 20:50:00,
2013-06-29 14:55:00,61.0,46.6,29.81,South,180,0.0,5.0,59,0.00,,,0.01,Wunderground v.1.15,2013-06-29 20:55:00,
2013-06-29 15:00:00,59.8,44.1,29.80,SSE,167,2.0,2.0,56,0.00,,,0.01,Wunderground v.1.15,2013-06-29 21:00:00,
2013-06-29 15:05:00,59.4,43.2,29.78,SE,132,0.0,5.0,55,0.00,,,0.01,Wunderground v.1.15,2013-06-29 21:05:00,
2013-06-29 15:10:00,59.3,45.0,29.79,NW,316,0.0,2.0,59,0.00,,,0.01,Wunderground v.1.15,2013-06-29 21:10:00,
2013-06-29 15:15:00,59.1,43.4,29.80,ESE,122,0.0,3.0,56,0.00,,,0.01,Wunderground v.1.15,2013-06-29 21:15:00,
2013-06-29 15:20:00,59.1,46.5,29.80,SW,215,0.0,1.0,63,0.00,,,0.01,Wunderground v.1.15,2013-06-29 21:20:00,
2013-06-29 15:25:00,59.0,46.0,29.80,SSE,162,1.0,4.0,62,0.00,,,0.01,Wunderground v.1.15,2013-06-29 21:25:00,
2013-06-29 15:30:00,59.1,43.9,29.80,ESE,108,1.0,4.0,57,0.00,,,0.01,Wunderground v.1.15,2013-06-29 21:30:00,
2013-06-29 15:35:00,59.0,44.7,29.80,SE,138,2.0,7.0,59,0.00,,,0.01,Wunderground v.1.15,2013-06-29 21:35:00,
2013-06-29 15:40:00,59.0,45.1,29.80,SSE,148,2.0,6.0,60,0.00,,,0.01,Wunderground v.1.15,2013-06-29 21:40:00,
2013-06-29 15:45:00,59.2,45.8,29.80,SE,139,2.0,7.0,61,0.00,,,0.01,Wunderground v.1.15,2013-06-29 21:45:00,
2013-06-29 15:50:00,59.3,45.8,29.80,SE,130,3.0,3.0,61,0.00,,,0.01,Wunderground v.1.15,2013-06-29 21:50:00,
2013-06-29 15:55:00,59.2,44.4,29.80,SE,134,1.0,11.0,58,0.00,,,0.01,Wunderground v.1.15,2013-06-29 21:55:00,
2013-06-29 16:00:00,59.3,45.0,29.80,SE,130,4.0,4.0,59,0.00,,,0.01,Wunderground v.1.15,2013-06-29 22:00:00,
2013-06-29 16:05:00,59.7,44.9,29.81,SE,134,3.0,8.0,58,0.00,,,0.01,Wunderground v.1.15,2013-06-29 22:05:00,
2013-06-29 16:10:00,60.0,45.6,29.81,SE,146,4.0,5.0,59,0.00,,,0.01,Wunderground v.1.15,2013-06-29 22:10:00,
2013-06-29 16:15:00,60.1,45.7,29.81,SE,126,4.0,12.0,59,0.00,,,0.01,Wunderground v.1.15,2013-06-29 22:15:00,
2013-06-29 16:20:00,60.4,46.0,29.81,SE,145,5.0,7.0,59,0.00,,,0.01,Wunderground v.1.15,2013-06-29 22:20:00,
2013-06-29 16:25:00,60.8,46.8,29.81,SE,136,4.0,9.0,60,0.00,,,0.01,Wunderground v.1.15,2013-06-29 22:25:00,
2013-06-29 16:30:00,61.4,46.9,29.80,ESE,123,4.0,5.0,59,0.00,,,0.01,Wunderground v.1.15,2013-06-29 22:30:00,
2013-06-29 16:35:00,62.6,46.2,29.80,SE,128,2.0,6.0,55,0.00,,,0.01,Wunderground v.1.15,2013-06-29 22:35:00,
2013-06-29 16:40:00,63.7,47.2,29.80,East,100,0.0,3.0,55,0.00,,,0.01,Wunderground v.1.15,2013-06-29 22:40:00,
2013-06-29 16:45:00,65.0,43.7,29.80,East,95,1.0,3.0,46,0.00,,,0.01,Wunderground v.1.15,2013-06-29 22:45:00,
2013-06-29 16:50:00,66.3,41.9,29.80,East,80,1.0,2.0,41,0.00,,,0.01,Wunderground v.1.15,2013-06-29 22:50:00,
2013-06-29 16:55:00,67.3,42.8,29.80,NNW,327,1.0,5.0,41,0.00,,,0.01,Wunderground v.1.15,2013-06-29 22:55:00,
2013-06-29 17:00:00,68.0,38.6,29.80,NE,34,0.0,1.0,34,0.00,,,0.01,Wunderground v.1.15,2013-06-29 23:00:00,
2013-06-29 17:05:00,68.5,39.8,29.80,NNW,341,5.0,5.0,35,0.00,,,0.01,Wunderground v.1.15,2013-06-29 23:05:00,
2013-06-29 17:10:00,68.8,40.0,29.79,NNW,347,1.0,3.0,35,0.00,,,0.01,Wunderground v.1.15,2013-06-29 23:10:00,
2013-06-29 17:16:00,68.9,40.1,29.79,WNW,303,1.0,8.0,35,0.00,,,0.01,Wunderground v.1.15,2013-06-29 23:16:00,
2013-06-29 17:21:00,68.9,39.4,29.79,North,10,2.0,2.0,34,0.00,,,0.01,Wunderground v.1.15,2013-06-29 23:21:00,
2013-06-29 17:26:00,68.8,38.5,29.80,NE,54,1.0,4.0,33,0.00,,,0.01,Wunderground v.1.15,2013-06-29 23:26:00,
2013-06-29 17:31:00,68.2,44.8,29.80,SE,132,6.0,11.0,43,0.00,,,0.01,Wunderground v.1.15,2013-06-29 23:31:00,
2013-06-29 17:36:00,67.4,44.1,29.80,SE,128,0.0,11.0,43,0.00,,,0.01,Wunderground v.1.15,2013-06-29 23:36:00,
2013-06-29 17:41:00,66.8,44.2,29.80,SSE,154,1.0,5.0,44,0.00,,,0.01,Wunderground v.1.15,2013-06-29 23:41:00,
2013-06-29 17:46:00,66.5,43.9,29.80,SSE,165,2.0,11.0,44,0.00,,,0.01,Wunderground v.1.15,2013-06-29 23:46:00,
2013-06-29 17:51:00,66.3,43.1,29.79,SSE,149,5.0,6.0,43,0.00,,,0.01,Wunderground v.1.15,2013-06-29 23:51:00,
2013-06-29 17:56:00,66.3,41.9,29.80,SSE,148,3.0,9.0,41,0.00,,,0.01,Wunderground v.1.15,2013-06-29 23:56:00,
2013-06-29 18:01:00,66.3,41.2,29.80,SSE,148,4.0,6.0,40,0.00,,,0.01,Wunderground v.1.15,2013-06-30 00:01:00,
2013-06-29 18:06:00,66.2,41.2,29.79,SE,134,2.0,8.0,40,0.00,,,0.01,Wunderground v.1.15,2013-06-30 00:06:00,
2013-06-29 18:11:00,66.2,41.8,29.79,ESE,121,7.0,11.0,41,0.00,,,0.01,Wunderground v.1.15,2013-06-30 00:11:00,
2013-06-29 18:16:00,66.3,42.5,29.78,SE,130,4.0,11.0,42,0.00,,,0.01,Wunderground v.1.15,2013-06-30 00:16:00,
2013-06-29 18:21:00,66.3,43.1,29.78,SE,130,3.0,3.0,43,0.00,,,0.01,Wunderground v.1.15,2013-06-30 00:21:00,
2013-06-29 18:26:00,66.3,41.2,29.78,South,178,1.0,6.0,40,0.00,,,0.01,Wunderground v.1.15,2013-06-30 00:26:00,
2013-06-29 18:31:00,66.3,40.6,29.78,SE,139,4.0,5.0,39,0.00,,,0.01,Wunderground v.1.15,2013-06-30 00:31:00,
2013-06-29 18:36:00,66.5,43.3,29.78,SSE,165,3.0,6.0,43,0.00,,,0.01,Wunderground v.1.15,2013-06-30 00:36:00,
2013-06-29 18:41:00,66.7,42.2,29.79,SW,226,4.0,6.0,41,0.00,,,0.01,Wunderground v.1.15,2013-06-30 00:41:00,
2013-06-29 18:46:00,66.8,41.7,29.79,SSE,150,5.0,6.0,40,0.00,,,0.01,Wunderground v.1.15,2013-06-30 00:46:00,
2013-06-29 18:51:00,66.9,41.8,29.79,SSE,165,3.0,6.0,40,0.00,,,0.01,Wunderground v.1.15,2013-06-30 00:51:00,
2013-06-29 18:56:00,67.0,41.9,29.79,South,185,0.0,7.0,40,0.00,,,0.01,Wunderground v.1.15,2013-06-30 00:56:00,
2013-06-29 19:00:00,66.9,41.1,29.79,SE,146,7.0,9.0,39,0.00,,,0.01,Wunderground v.1.15,2013-06-30 01:00:00,
2013-06-29 19:05:00,66.7,40.9,29.79,SW,219,5.0,9.0,39,0.00,,,0.01,Wunderground v.1.15,2013-06-30 01:05:00,
2013-06-29 19:11:00,66.5,40.8,29.79,South,181,3.0,11.0,39,0.00,,,0.01,Wunderground v.1.15,2013-06-30 01:11:00,
2013-06-29 19:16:00,66.3,40.6,29.79,SE,128,4.0,11.0,39,0.00,,,0.01,Wunderground v.1.15,2013-06-30 01:16:00,
2013-06-29 19:21:00,66.1,40.4,29.79,SE,140,2.0,4.0,39,0.00,,,0.01,Wunderground v.1.15,2013-06-30 01:21:00,
2013-06-29 19:26:00,65.9,40.9,29.79,SE,137,3.0,6.0,40,0.00,,,0.01,Wunderground v.1.15,2013-06-30 01:26:00,
2013-06-29 19:31:00,65.6,41.3,29.79,SSE,148,3.0,6.0,41,0.00,,,0.01,Wunderground v.1.15,2013-06-30 01:31:00,
2013-06-29 19:36:00,65.2,41.5,29.79,SE,132,3.0,8.0,42,0.00,,,0.01,Wunderground v.1.15,2013-06-30 01:36:00,
2013-06-29 19:41:00,64.6,42.2,29.80,SE,139,6.0,8.0,44,0.00,,,0.01,Wunderground v.1.15,2013-06-30 01:41:00,
2013-06-29 19:46:00,64.0,41.6,29.80,SE,129,1.0,8.0,44,0.00,,,0.01,Wunderground v.1.15,2013-06-30 01:46:00,
2013-06-29 19:51:00,63.4,42.8,29.80,SE,146,2.0,5.0,47,0.00,,,0.01,Wunderground v.1.15,2013-06-30 01:51:00,
2013-06-29 19:56:00,63.0,43.0,29.80,ESE,121,2.0,5.0,48,0.00,,,0.01,Wunderground v.1.15,2013-06-30 01:56:00,
2013-06-29 20:01:00,62.6,42.1,29.80,ESE,123,4.0,4.0,47,0.00,,,0.01,Wunderground v.1.15,2013-06-30 02:01:00,
2013-06-29 20:06:00,62.5,42.0,29.80,SE,138,2.0,11.0,47,0.00,,,0.01,Wunderground v.1.15,2013-06-30 02:06:00,
2013-06-29 20:11:00,62.3,42.3,29.80,SE,146,5.0,6.0,48,0.00,,,0.01,Wunderground v.1.15,2013-06-30 02:11:00,
2013-06-29 20:16:00,62.1,42.2,29.80,SE,146,8.0,12.0,48,0.00,,,0.01,Wunderground v.1.15,2013-06-30 02:16:00,
2013-06-29 20:21:00,62.3,41.8,29.80,ESE,115,4.0,14.0,47,0.00,,,0.01,Wunderground v.1.15,2013-06-30 02:21:00,
2013-06-29 20:26:00,62.5,42.0,29.80,SE,141,7.0,14.0,47,0.00,,,0.01,Wunderground v.1.15,2013-06-30 02:26:00,
2013-06-29 20:31:00,62.7,42.2,29.80,ESE,121,9.0,10.0,47,0.00,,,0.01,Wunderground v.1.15,2013-06-30 02:31:00,
2013-06-29 20:36:00,62.8,42.3,29.80,SSE,155,12.0,14.0,47,0.00,,,0.01,Wunderground v.1.15,2013-06-30 02:36:00,
2013-06-29 20:41:00,62.4,43.0,29.81,ESE,119,3.0,11.0,49,0.00,,,0.01,Wunderground v.1.15,2013-06-30 02:41:00,
2013-06-29 20:46:00,61.3,43.0,29.81,SE,128,3.0,11.0,51,0.00,,,0.01,Wunderground v.1.15,2013-06-30 02:46:00,
2013-06-29 20:51:00,60.5,43.3,29.81,SE,144,7.0,7.0,53,0.00,,,0.01,Wunderground v.1.15,2013-06-30 02:51:00,
2013-06-29 20:56:00,59.9,43.2,29.81,ESE,120,4.0,8.0,54,0.00,,,0.01,Wunderground v.1.15,2013-06-30 02:56:00,
2013-06-29 21:01:00,59.3,43.1,29.81,SE,131,2.0,9.0,55,0.00,,,0.01,Wunderground v.1.15,2013-06-30 03:01:00,
2013-06-29 21:06:00,59.0,43.3,29.82,SE,140,4.0,10.0,56,0.00,,,0.01,Wunderground v.1.15,2013-06-30 03:06:00,
2013-06-29 21:11:00,58.7,43.0,29.82,SSE,151,2.0,5.0,56,0.00,,,0.01,Wunderground v.1.15,2013-06-30 03:11:00,
2013-06-29 21:16:00,58.5,43.3,29.82,ESE,117,4.0,8.0,57,0.00,,,0.01,Wunderground v.1.15,2013-06-30 03:16:00,
2013-06-29 21:21:00,58.3,43.1,29.83,SE,146,5.0,6.0,57,0.00,,,0.01,Wunderground v.1.15,2013-06-30 03:21:00,
2013-06-29 21:26:00,58.2,43.0,29.83,ESE,123,3.0,9.0,57,0.00,,,0.01,Wunderground v.1.15,2013-06-30 03:26:00,
2013-06-29 21:31:00,58.0,42.8,29.83,SE,146,8.0,8.0,57,0.00,,,0.01,Wunderground v.1.15,2013-06-30 03:31:00,
2013-06-29 21:36:00,57.8,43.1,29.83,South,173,2.0,8.0,58,0.00,,,0.01,Wunderground v.1.15,2013-06-30 03:36:00,
2013-06-29 21:41:00,57.7,43.0,29.83,SSE,153,0.0,4.0,58,0.00,,,0.01,Wunderground v.1.15,2013-06-30 03:41:00,
2013-06-29 21:46:00,57.5,43.3,29.83,SE,141,2.0,7.0,59,0.00,,,0.01,Wunderground v.1.15,2013-06-30 03:46:00,
2013-06-29 21:51:00,57.3,43.1,29.83,SE,125,7.0,8.0,59,0.00,,,0.01,Wunderground v.1.15,2013-06-30 03:51:00,
2013-06-29 21:56:00,57.1,43.3,29.83,South,169,2.0,8.0,60,0.00,,,0.01,Wunderground v.1.15,2013-06-30 03:56:00,
2013-06-29 22:01:00,56.8,43.1,29.84,SE,140,2.0,6.0,60,0.00,,,0.01,Wunderground v.1.15,2013-06-30 04:01:00,
2013-06-29 22:06:00,56.6,42.9,29.84,SE,128,5.0,6.0,60,0.00,,,0.01,Wunderground v.1.15,2013-06-30 04:06:00,
2013-06-29 22:11:00,56.4,43.1,29.84,SSE,149,2.0,7.0,61,0.00,,,0.01,Wunderground v.1.15,2013-06-30 04:11:00,
2013-06-29 22:16:00,56.1,42.8,29.85,SE,130,0.0,7.0,61,0.00,,,0.01,Wunderground v.1.15,2013-06-30 04:16:00,
2013-06-29 22:21:00,55.9,43.1,29.85,SE,124,2.0,7.0,62,0.00,,,0.01,Wunderground v.1.15,2013-06-30 04:21:00,
2013-06-29 22:26:00,55.5,42.7,29.85,SE,133,1.0,7.0,62,0.00,,,0.01,Wunderground v.1.15,2013-06-30 04:26:00,
2013-06-29 22:31:00,55.3,42.5,29.85,SSE,149,1.0,9.0,62,0.00,,,0.01,Wunderground v.1.15,2013-06-30 04:31:00,
2013-06-29 22:36:00,55.1,42.3,29.85,SSE,147,0.0,9.0,62,0.00,,,0.01,Wunderground v.1.15,2013-06-30 04:36:00,
2013-06-29 22:41:00,55.0,41.8,29.85,SE,143,0.0,1.0,61,0.00,,,0.01,Wunderground v.1.15,2013-06-30 04:41:00,
2013-06-29 22:46:00,54.8,42.4,29.85,SSW,199,0.0,5.0,63,0.00,,,0.01,Wunderground v.1.15,2013-06-30 04:46:00,
2013-06-29 22:51:00,54.5,42.2,29.85,SE,136,5.0,5.0,63,0.00,,,0.01,Wunderground v.1.15,2013-06-30 04:51:00,
2013-06-29 22:56:00,54.3,42.0,29.85,SSW,207,1.0,7.0,63,0.00,,,0.01,Wunderground v.1.15,2013-06-30 04:56:00,
2013-06-29 23:01:00,54.0,41.7,29.85,SE,136,1.0,4.0,63,0.00,,,0.01,Wunderground v.1.15,2013-06-30 05:01:00,
2013-06-29 23:06:00,53.8,41.9,29.85,SE,132,3.0,7.0,64,0.00,,,0.01,Wunderground v.1.15,2013-06-30 05:06:00,
2013-06-29 23:11:00,53.5,42.0,29.85,SSE,154,2.0,7.0,65,0.00,,,0.01,Wunderground v.1.15,2013-06-30 05:11:00,
2013-06-29 23:16:00,53.3,42.2,29.85,SSE,149,3.0,8.0,66,0.00,,,0.01,Wunderground v.1.15,2013-06-30 05:16:00,
2013-06-29 23:21:00,53.1,42.0,29.86,SE,130,0.0,4.0,66,0.00,,,0.01,Wunderground v.1.15,2013-06-30 05:21:00,
2013-06-29 23:26:00,53.0,42.3,29.86,SE,137,3.0,9.0,67,0.00,,,0.01,Wunderground v.1.15,2013-06-30 05:26:00,
2013-06-29 23:31:00,52.9,42.2,29.87,SE,140,3.0,8.0,67,0.00,,,0.01,Wunderground v.1.15,2013-06-30 05:31:00,
2013-06-29 23:36:00,52.8,42.1,29.87,SSE,150,1.0,10.0,67,0.00,,,0.01,Wunderground v.1.15,2013-06-30 05:36:00,
2013-06-29 23:41:00,52.9,41.8,29.87,SE,126,1.0,5.0,66,0.00,,,0.01,Wunderground v.1.15,2013-06-30 05:41:00,
2013-06-29 23:46:00,52.9,41.8,29.87,SE,138,7.0,9.0,66,0.00,,,0.01,Wunderground v.1.15,2013-06-30 05:46:00,
2013-06-29 23:51:00,52.7,42.0,29.87,SE,134,6.0,10.0,67,0.00,,,0.01,Wunderground v.1.15,2013-06-30 05:51:00,
2013-06-29 23:56:00,52.4,41.8,29.88,SE,142,6.0,11.0,67,0.00,,,0.01,Wunderground v.1.15,2013-06-30 05:56:00,